Vorticity
11 11 11 11 11 11 12 13 14 14 14 15 15 15 15 15 15 15 15 15 14 14 14 15 16 16 16 16 17 18 19 19 19 19 18 18 17 17 17 16 16 16 16 16 17 18 19 19 20 21 22 23 24 26 27 27 27 27 27 27 28 28 28 27 26 24 23 22 20 20 19 18 17 17 16 16 15 14 14 14 15 16 18 19 20 20
11 11 11 12 12 12 13 14 15 16 16 16 16 15 14 14 15 15 15 15 15 15 16 16 15 15 15 16 17 18 19 20 19 19 18 17 17 16 16 16 16 16 16 16 17 18 18 19 20 21 22 22 23 24 24 25 25 26 26 26 26 26 26 25 24 23 22 21 20 19 19 18 18 17 16 16 16 16 17 17 18 18 18 18 18 18
11 12 12 13 13 14 14 15 16 16 17 16 15 14 13 14 15 16 16 16 15 14 14 14 14 14 15 16 18 19 20 20 19 18 17 16 16 16 16 17 17 17 17 17 17 18 18 18 19 19 20 20 20 21 21 22 22 22 22 22 22 22 22 21 20 20 19 18 18 18 17 17 16 16 16 16 16 17 17 18 18 18 18 17 17 17
12 13 13 13 14 15 16 16 16 17 17 16 14 14 13 14 16 16 16 15 14 13 12 13 13 14 16 17 18 19 19 19 18 17 16 16 17 17 17 17 17 17 17 17 18 18 18 17 17 17 17 17 17 18 18 18 18 19 19 19 19 18 18 18 17 17 16 16 15 15 14 14 14 14 14 15 16 16 16 17 17 18 18 17 16 16
14 14 14 14 14 16 16 16 16 16 16 15 14 14 14 14 15 15 14 13 13 12 12 13 14 15 16 18 18 18 18 17 16 16 16 17 17 18 18 17 17 17 17 17 16 16 15 15 14 14 14 14 14 14 14 14 15 15 15 16 16 16 16 16 16 15 14 14 13 13 13 12 12 12 12 13 13 14 13 14 14 15 16 16 15 15
15 16 15 15 16 16 15 16 16 16 15 14 14 14 15 14 14 13 12 12 12 12 12 13 15 16 17 17 17 17 16 16 16 16 17 18 18 17 17 16 16 16 15 14 14 13 12 12 11 11 11 11 11 11 11 11 11 12 12 12 12 13 13 14 14 14 14 13 13 13 13 12 12 12 12 11 11 11 10 9 9 10 10 11 11 12
15 16 16 16 16 16 16 16 16 16 15 14 14 14 14 13 12 12 11 12 12 12 13 14 15 16 16 16 16 16 16 16 16 16 17 17 16 16 15 15 14 13 13 12 11 11 10 10 10 10 10 10 10 10 10 10 10 10 10 10 10 10 11 12 12 13 13 13 14 14 14 14 14 14 14 13 13 12 11 9 8 7 6 7 8 10
14 16 17 16 16 16 16 15 15 15 15 14 14 14 13 12 12 12 12 12 12 13 14 15 16 15 14 15 16 16 16 16 16 15 15 15 15 14 14 13 12 11 10 10 9 9 9 9 9 10 10 11 12 12 12 12 11 11 10 10 10 10 10 10 11 12 12 13 13 14 14 15 15 16 16 16 16 15 15 13 12 11 9 9 9 10
14 14 16 16 16 15 15 14 13 13 13 13 13 13 13 12 12 12 12 12 12 13 15 16 16 15 15 15 15 15 15 14 13 13 14 14 13 13 12 11 10 9 9 8 8 8 8 8 9 10 11 12 13 14 14 14 14 14 13 13 12 12 12 12 12 12 12 13 13 14 14 14 15 16 16 16 16 17 17 16 16 15 14 13 13 12
16 15 14 16 15 14 14 13 12 12 12 12 12 12 13 13 12 12 12 12 12 13 15 15 16 16 16 14 13 13 13 12 11 10 11 12 12 12 11 10 9 9 8 7 7 7 7 7 8 10 12 13 14 15 16 16 16 16 16 16 15 15 15 14 14 14 14 14 14 14 15 15 16 16 16 17 17 17 18 18 17 17 17 16 16 15
16 15 14 14 13 12 13 12 12 12 12 13 14 14 15 14 12 11 11 12 13 14 15 15 15 15 15 13 11 10 11 11 10 9 8 9 10 10 10 10 9 8 8 8 7 7 7 7 9 10 12 14 15 16 17 17 17 17 17 17 17 17 17 16 16 16 16 16 15 15 16 16 16 17 17 18 18 18 18 19 19 19 18 18 18 17
15 14 13 12 10 9 9 10 11 13 15 16 16 16 15 12 10 10 11 13 14 15 15 15 14 12 10 10 10 10 10 11 11 10 10 8 8 9 11 11 10 10 9 9 9 8 8 9 10 12 14 15 16 17 17 17 17 16 16 16 16 16 16 16 16 16 16 16 16 15 15 16 16 16 17 18 18 19 20 20 20 20 20 20 20 19
14 12 10 9 9 8 9 11 14 16 18 17 16 13 11 10 10 11 12 13 14 14 15 15 13 9 5 5 7 10 11 11 11 11 10 9 9 10 13 13 13 12 11 11 10 10 9 11 13 14 16 17 18 18 18 17 17 16 16 15 15 14 14 14 14 14 14 14 14 14 15 15 16 16 17 18 18 19 20 21 21 22 22 22 22 22
11 9 8 9 10 11 13 16 18 18 16 14 12 10 9 10 11 12 14 14 14 14 13 13 11 8 4 3 4 7 10 12 13 12 9 8 9 11 14 14 14 12 12 12 11 11 12 14 15 17 18 19 20 20 19 18 17 16 15 14 14 13 12 12 12 12 12 13 13 14 14 15 15 16 17 18 19 20 21 21 22 22 23 23 24 24
8 7 9 11 13 15 18 18 17 16 14 12 10 10 10 12 13 14 14 14 14 13 11 10 9 7 3 2 4 6 9 12 13 12 10 9 9 10 13 14 13 12 11 12 13 14 15 16 18 19 20 20 21 20 20 18 17 16 15 14 14 13 12 11 11 11 11 12 12 13 14 15 16 16 17 18 20 20 21 22 22 23 23 24 24 24
9 9 10 13 15 18 18 17 16 14 12 11 10 10 11 13 13 14 13 13 12 10 9 9 10 8 3 1 2 4 8 11 11 11 10 10 9 10 11 13 13 12 12 13 15 16 18 18 19 19 20 20 20 20 19 18 17 16 15 15 14 14 13 12 12 12 11 11 12 12 13 14 15 16 17 18 19 20 21 22 22 23 23 24 24 24
10 11 13 15 17 18 18 16 14 12 11 10 11 12 13 13 13 12 11 10 9 8 6 6 8 9 10 3 0 1 6 10 10 10 9 9 10 10 11 12 13 13 14 16 17 18 18 18 18 19 19 19 18 18 17 16 15 14 14 15 15 15 15 14 13 12 11 11 10 11 11 13 14 16 18 19 20 21 21 22 22 22 23 23 24 24
12 14 16 17 18 17 16 14 13 12 11 11 12 13 14 13 12 10 8 7 7 6 5 4 4 5 8 6 3 3 6 9 10 10 9 9 9 10 11 12 14 15 16 17 18 18 18 17 17 17 16 16 16 15 14 14 13 13 13 14 14 14 13 12 11 10 9 8 8 8 9 11 13 16 18 20 21 22 22 22 22 22 22 23 24 24
14 16 18 18 17 15 13 13 12 11 11 12 13 13 13 12 10 8 6 6 5 5 4 4 4 4 4 4 5 7 10 11 10 9 8 9 9 10 11 13 14 16 16 17 17 16 16 15 15 14 14 14 14 14 14 14 14 13 13 13 13 12 11 9 8 7 6 6 6 7 8 10 12 15 17 19 21 22 22 22 22 22 23 23 23 24
16 18 20 18 16 13 13 12 12 12 12 13 13 12 12 10 8 7 6 5 4 4 4 4 4 4 4 4 6 10 13 12 10 9 8 8 9 10 10 12 14 16 16 15 15 15 14 14 15 16 16 16 17 17 17 17 16 15 15 14 13 12 10 8 7 6 5 5 6 6 7 8 10 12 14 16 17 18 19 20 21 21 22 22 22 22
18 19 20 17 14 12 12 12 13 13 14 13 12 10 10 8 7 6 5 4 4 4 4 3 4 4 5 5 8 12 14 12 10 7 7 8 8 9 9 12 14 15 14 14 13 13 14 16 18 20 22 23 23 23 22 21 19 18 17 16 14 12 11 9 8 7 6 6 6 7 8 9 10 11 12 13 13 14 15 16 17 18 19 19 19 19
19 18 17 14 13 12 13 14 14 13 13 13 11 9 8 7 6 5 4 4 4 4 4 4 4 5 6 8 11 14 14 12 8 7 7 8 8 8 9 11 13 13 13 13 13 14 17 20 24 26 29 29 29 27 25 23 21 20 18 17 15 14 13 12 10 10 9 9 9 9 10 11 11 12 12 12 12 12 12 12 13 13 13 13 13 13
17 16 14 14 14 14 13 14 14 13 12 11 10 8 6 6 5 4 3 3 3 4 4 4 5 7 10 12 14 15 14 10 8 7 7 8 8 9 10 11 11 11 11 13 15 18 23 27 30 32 34 33 31 28 25 23 21 20 19 18 17 16 16 15 14 14 13 12 12 12 12 13 13 13 13 12 11 10 10 9 8 7 7 7 7 7
15 15 14 15 15 15 15 14 13 12 11 10 9 7 5 4 3 3 3 4 4 4 4 5 7 9 12 13 14 14 13 10 9 7 6 7 8 9 9 10 10 11 12 14 19 24 30 33 34 35 35 32 29 27 24 22 21 21 21 21 21 21 21 20 19 18 17 16 15 14 14 13 13 13 12 11 10 10 9 8 7 7 7 6 6 6
15 16 16 16 16 15 14 13 12 11 10 9 7 6 4 3 3 3 4 5 5 6 6 8 9 10 12 13 13 13 13 11 10 8 8 8 9 8 8 8 10 12 15 19 24 29 35 36 36 34 32 29 26 24 23 22 22 23 25 26 26 26 26 25 24 23 22 21 20 19 18 16 15 14 14 14 14 14 14 14 14 13 13 13 12 11
16 17 17 16 15 14 12 11 10 9 9 8 6 5 3 3 3 4 5 7 8 8 9 10 11 12 12 12 12 13 14 13 11 9 8 9 8 7 6 8 11 14 19 24 28 31 34 35 34 31 28 25 23 22 22 22 24 25 26 27 28 28 28 29 29 30 31 30 30 29 28 26 25 24 23 23 22 22 21 21 20 20 20 19 19 18
17 17 16 15 13 12 10 9 8 8 7 6 5 4 3 3 4 6 9 10 11 11 11 11 11 11 11 11 12 14 15 14 12 10 8 9 7 6 6 9 12 17 23 28 30 31 31 31 30 28 24 21 20 20 21 22 23 24 24 25 24 24 25 26 27 29 30 31 32 32 32 31 31 30 29 28 27 26 24 24 23 23 22 22 21 20
16 15 13 12 11 10 9 8 7 7 6 5 4 4 4 4 7 10 13 12 12 12 13 12 11 11 11 12 13 14 15 13 12 10 8 8 6 5 8 11 14 19 26 32 32 28 23 24 25 24 21 19 19 20 21 21 22 22 23 22 21 19 18 18 18 18 18 19 19 19 20 20 20 20 20 20 20 20 20 20 20 20 19 19 18 17
13 11 10 9 9 8 7 7 6 6 5 4 4 5 7 9 12 14 15 13 13 13 13 12 11 11 11 12 14 14 13 12 11 10 8 7 5 6 10 13 16 20 27 34 33 26 14 15 18 19 18 18 18 18 19 20 21 23 24 24 23 21 20 18 17 16 15 15 14 13 13 13 13 13 13 13 13 13 13 13 13 13 13 13 13 13
8 7 7 7 7 7 7 6 6 5 5 5 6 9 12 15 17 17 16 15 14 13 12 11 11 12 12 12 13 14 12 12 10 9 7 6 6 8 12 15 16 19 25 29 28 22 12 9 10 13 15 15 14 14 14 17 19 20 21 21 21 21 21 20 20 19 19 18 18 17 17 16 15 15 14 14 13 13 12 12 12 12 11 11 10 10
6 6 6 7 7 7 7 7 6 6 6 8 11 15 18 20 20 18 15 14 13 13 12 11 11 11 11 12 13 13 12 12 10 8 8 7 7 10 14 16 17 18 20 21 20 16 12 5 3 5 9 10 10 9 9 11 13 15 15 13 13 14 15 16 16 16 16 17 18 18 18 18 18 17 16 16 15 15 15 14 14 14 14 13 12 12
6 7 8 8 8 8 8 8 8 8 10 14 17 21 23 21 19 16 14 13 12 12 12 11 10 10 11 12 12 12 12 12 11 9 8 8 8 10 14 18 19 19 19 15 12 12 12 7 4 1 -1 3 6 7 6 6 7 9 10 8 7 8 10 10 11 11 12 14 16 17 19 20 20 20 19 19 18 18 18 17 17 17 17 17 16 16
8 9 9 9 9 9 9 9 10 12 15 19 23 24 24 20 16 13 12 12 11 10 10 10 10 11 12 12 12 11 11 12 11 10 9 9 9 10 15 18 19 21 22 15 10 9 8 9 8 4 -4 -3 2 7 8 4 3 3 5 6 6 6 8 8 7 8 9 11 13 16 18 21 22 23 23 22 22 22 21 21 20 19 19 20 20 19
9 10 10 10 10 10 10 10 13 16 20 24 26 25 21 16 13 11 10 9 8 7 8 9 10 11 12 12 12 11 10 11 12 11 10 10 10 12 16 16 19 21 22 18 14 10 6 7 9 9 4 -1 0 4 9 6 2 -0 0 2 4 6 8 7 6 6 7 8 11 13 17 20 22 24 24 24 24 23 23 22 21 20 20 20 20 20
9 10 10 10 10 11 11 13 17 21 26 27 25 21 16 12 10 9 7 6 6 6 8 9 10 11 11 11 11 11 11 12 13 13 12 12 12 13 15 14 17 20 19 16 14 11 6 4 6 9 11 7 3 2 4 4 3 1 -1 -0 1 4 6 6 6 6 6 7 9 11 15 18 20 22 23 23 23 23 23 22 21 20 18 18 18 19
10 10 11 11 11 12 13 17 21 26 29 26 21 16 11 9 7 6 5 5 6 7 8 10 10 10 9 8 9 10 12 13 14 14 14 13 13 14 14 14 16 17 16 15 13 10 7 5 4 5 8 9 8 6 3 2 1 0 -1 -1 -0 0 2 3 4 6 6 7 8 10 13 16 18 20 20 20 21 22 22 21 20 19 18 18 17 18
11 11 11 12 13 14 17 21 25 27 27 21 15 10 7 5 4 4 4 5 7 8 10 11 11 10 8 6 6 8 12 14 16 16 16 14 14 14 14 14 14 14 14 14 13 11 8 6 5 4 3 4 6 8 10 7 4 -0 -2 -1 -0 0 1 2 4 5 6 7 8 10 12 15 17 18 18 18 20 21 21 20 20 20 20 20 19 18
12 13 13 13 15 18 20 24 26 25 21 14 9 6 4 2 1 1 4 6 9 11 12 12 12 11 8 6 6 8 11 14 16 17 16 15 14 15 15 15 14 13 12 12 12 11 8 6 5 4 3 1 1 2 6 8 7 4 1 1 1 1 2 4 5 6 7 8 9 10 12 14 16 18 18 19 20 21 21 20 19 19 20 19 19 19
14 14 15 16 18 21 23 25 24 20 14 10 6 4 2 -0 -1 -0 4 8 11 14 14 14 14 12 10 7 7 9 12 15 17 18 17 16 15 15 16 16 15 14 13 11 10 8 6 5 4 4 4 4 2 1 1 3 5 6 6 5 3 2 2 4 6 8 9 10 11 12 13 14 16 18 19 20 20 20 19 19 18 17 16 16 16 18
15 16 17 19 22 24 24 23 20 15 10 7 5 3 1 -2 -2 0 4 9 13 16 17 16 16 14 11 9 8 10 13 16 18 19 18 17 16 16 15 15 15 14 14 11 8 5 4 3 3 3 4 5 5 4 3 3 4 5 7 7 6 6 5 7 8 10 10 11 12 13 14 16 17 17 18 18 18 20 24 24 21 16 14 14 17 20
16 18 20 22 24 24 23 20 16 11 8 6 5 4 2 -1 -1 1 6 12 17 19 20 19 18 16 12 9 9 11 14 17 19 20 19 18 17 16 14 13 13 13 14 11 8 5 3 2 3 3 4 4 5 5 4 2 3 4 6 7 8 9 9 9 10 11 12 12 13 14 15 17 17 16 16 16 16 18 24 26 25 22 18 18 21 24
18 20 23 24 24 22 20 15 12 8 7 7 6 6 4 1 0 3 9 16 20 22 22 22 21 19 15 10 9 11 14 18 20 21 20 19 18 16 14 12 11 10 11 11 8 6 4 3 4 4 4 4 4 4 3 2 2 3 5 6 9 11 11 9 9 10 12 13 14 14 15 16 16 17 18 19 22 25 28 28 27 25 23 23 23 22
20 22 24 22 20 17 14 10 8 7 7 8 8 8 6 3 2 5 12 19 21 20 20 20 21 21 19 16 13 11 13 17 20 21 21 20 18 16 14 12 10 9 9 9 8 7 5 4 4 4 4 3 3 3 3 3 3 4 5 7 10 12 13 12 12 11 11 13 14 15 14 14 15 16 18 22 27 33 36 33 29 26 24 22 20 16
22 23 21 17 14 11 8 7 6 6 7 8 8 8 6 4 4 8 15 19 18 16 15 17 19 19 18 18 16 15 15 17 19 20 20 20 19 17 14 12 10 9 8 8 7 7 6 5 4 3 2 2 2 3 3 4 5 6 7 8 9 10 11 14 15 14 13 14 13 13 12 13 15 18 20 22 28 34 37 34 30 26 23 20 16 13
21 21 17 12 8 6 5 7 9 11 12 10 9 7 5 4 6 10 16 18 15 12 10 14 17 18 17 19 19 18 18 18 18 18 18 18 18 16 15 13 11 10 8 7 6 5 5 5 4 3 2 2 3 3 4 6 8 9 9 9 10 10 11 12 13 13 14 14 13 12 10 13 18 22 22 27 32 36 38 33 26 20 16 16 15 14
20 18 14 8 4 3 4 9 12 14 12 11 10 8 5 4 6 11 17 16 13 10 8 10 11 12 14 19 21 21 21 20 19 17 16 16 16 15 14 13 12 10 9 7 6 4 4 4 4 3 3 4 5 6 7 8 10 11 10 10 11 12 13 12 11 11 12 13 13 12 11 17 21 24 27 36 39 39 35 27 19 12 10 12 14 16
20 18 13 7 2 0 3 9 10 9 5 6 7 7 5 3 6 11 17 16 13 10 9 8 6 5 8 15 20 22 22 22 20 18 15 14 14 14 13 12 11 10 9 7 6 5 4 5 5 5 5 6 7 8 9 10 11 11 11 11 12 13 13 11 10 10 12 12 11 12 13 19 22 25 32 40 41 37 29 20 11 4 2 5 10 13
19 18 14 7 2 -0 2 6 6 4 1 3 5 6 4 2 5 11 17 16 13 10 9 7 6 5 6 10 14 17 20 22 21 20 17 14 13 12 12 11 10 9 8 6 5 4 4 5 6 7 8 8 9 10 11 11 10 10 10 11 12 13 12 10 10 10 11 10 10 11 13 19 24 32 42 43 39 30 22 14 9 5 4 6 10 13
20 19 15 8 3 0 1 3 3 3 4 6 6 6 2 1 4 11 18 18 14 10 7 6 6 6 6 9 12 14 16 19 20 19 18 15 13 11 10 9 8 7 6 4 3 2 1 2 4 6 8 9 10 11 12 11 9 8 8 10 11 12 12 10 10 10 11 10 10 11 13 17 25 35 43 42 35 26 16 12 13 16 21 23 22 18
20 19 16 10 5 2 1 2 3 4 7 8 8 6 2 -0 4 11 19 19 15 10 7 6 6 6 5 7 10 13 15 18 19 19 18 16 14 12 10 9 8 7 5 3 1 -1 -3 -5 -3 1 8 10 11 11 11 10 9 8 8 9 10 11 11 10 10 10 11 10 11 12 14 20 27 34 37 36 29 20 12 14 20 28 34 32 25 17
19 19 17 12 8 4 3 3 4 6 8 8 7 5 2 -0 3 9 18 18 15 11 7 6 6 5 5 6 8 10 13 16 18 18 18 18 16 13 11 10 10 8 7 6 3 1 -1 -6 -8 -6 3 8 10 11 10 9 8 8 8 9 10 11 10 9 10 10 10 10 11 13 16 21 28 33 35 31 22 13 8 13 19 22 19 13 10 10
Height
2925 2922 2920 2918 2916 2914 2910 2907 2906 2905 2902 2899 2896 2894 2893 2891 2889 2886 2884 2882 2880 2877 2875 2872 2871 2869 2867 2865 2864 2862 2860 2858 2856 2854 2852 2850 2847 2845 2843 2841 2839 2837 2836 2834 2832 2831 2829 2827 2826 2825 2824 2822 2821 2820 2819 2818 2817 2816 2815 2815 2814 2814 2814 2814 2814 2814 2814 2815 2815 2815 2816 2816 2816 2817 2818 2818 2819 2819 2820 2821 2821 2822 2823 2824 2824 2825
2921 2918 2916 2914 2912 2910 2907 2904 2902 2900 2898 2896 2893 2891 2889 2887 2885 2882 2880 2878 2876 2873 2871 2869 2866 2865 2863 2861 2860 2858 2856 2855 2853 2851 2848 2846 2844 2841 2839 2837 2836 2834 2832 2830 2829 2827 2826 2824 2823 2821 2820 2819 2817 2816 2815 2814 2813 2812 2811 2811 2810 2810 2809 2809 2809 2809 2809 2810 2810 2810 2811 2811 2811 2812 2812 2813 2813 2814 2814 2815 2816 2816 2817 2817 2818 2819
2918 2915 2911 2909 2907 2906 2904 2901 2899 2896 2893 2891 2890 2887 2885 2883 2881 2878 2876 2874 2871 2869 2867 2865 2863 2861 2859 2858 2856 2855 2853 2851 2849 2846 2844 2842 2840 2838 2836 2834 2832 2831 2829 2827 2825 2824 2822 2821 2819 2818 2816 2815 2814 2813 2811 2811 2809 2808 2808 2807 2806 2806 2805 2805 2805 2805 2805 2805 2805 2805 2806 2806 2806 2807 2807 2807 2808 2809 2809 2810 2810 2811 2811 2811 2812 2813
2914 2911 2908 2905 2903 2901 2899 2898 2896 2893 2890 2888 2886 2884 2882 2879 2876 2874 2872 2870 2867 2865 2863 2862 2860 2858 2856 2854 2853 2851 2849 2847 2845 2843 2841 2839 2837 2835 2833 2831 2829 2828 2826 2824 2822 2821 2819 2818 2816 2815 2813 2812 2811 2809 2808 2807 2806 2805 2804 2803 2803 2802 2802 2801 2801 2801 2801 2801 2801 2801 2801 2801 2802 2802 2802 2803 2803 2804 2804 2805 2805 2806 2806 2806 2807 2807
2909 2907 2904 2902 2899 2896 2894 2893 2891 2890 2887 2885 2882 2881 2878 2875 2872 2870 2868 2866 2864 2862 2860 2858 2857 2855 2853 2851 2849 2847 2846 2844 2841 2840 2838 2836 2834 2832 2831 2829 2827 2826 2824 2822 2820 2819 2817 2816 2814 2812 2811 2809 2808 2806 2805 2804 2803 2802 2801 2800 2799 2798 2798 2797 2797 2797 2797 2797 2797 2797 2797 2797 2798 2798 2798 2798 2799 2799 2800 2800 2801 2801 2801 2801 2801 2802
2904 2902 2901 2899 2896 2893 2891 2889 2888 2886 2883 2880 2878 2876 2874 2871 2869 2866 2864 2862 2860 2859 2857 2856 2854 2852 2850 2848 2846 2844 2842 2841 2839 2837 2835 2834 2832 2830 2829 2827 2825 2823 2821 2820 2818 2816 2815 2813 2811 2810 2808 2807 2805 2804 2802 2801 2800 2798 2797 2796 2795 2795 2794 2793 2793 2793 2792 2792 2793 2792 2792 2792 2793 2793 2793 2794 2794 2794 2794 2796 2796 2797 2797 2797 2796 2797
2900 2898 2896 2895 2892 2890 2888 2886 2884 2882 2880 2876 2873 2871 2870 2867 2865 2863 2861 2859 2857 2856 2854 2852 2851 2849 2847 2845 2843 2841 2840 2838 2836 2835 2833 2831 2830 2828 2826 2825 2823 2821 2819 2817 2816 2814 2812 2811 2809 2807 2806 2804 2802 2801 2799 2798 2796 2795 2794 2793 2792 2791 2790 2790 2789 2789 2788 2788 2788 2788 2788 2788 2788 2788 2788 2788 2788 2788 2789 2789 2790 2791 2791 2791 2791 2791
2897 2895 2892 2890 2888 2886 2884 2882 2880 2878 2876 2873 2870 2867 2866 2864 2862 2860 2858 2856 2855 2853 2851 2849 2847 2846 2844 2842 2841 2839 2837 2835 2834 2832 2830 2829 2827 2826 2824 2822 2820 2818 2816 2815 2813 2812 2810 2808 2806 2805 2803 2801 2800 2798 2796 2795 2793 2792 2791 2789 2788 2787 2786 2786 2785 2785 2784 2784 2784 2783 2783 2783 2783 2783 2783 2783 2783 2783 2783 2784 2784 2784 2785 2785 2786 2786
2893 2891 2889 2886 2885 2883 2881 2878 2876 2874 2873 2870 2867 2865 2862 2860 2858 2856 2855 2854 2852 2851 2848 2846 2844 2843 2842 2840 2839 2837 2835 2833 2831 2829 2827 2826 2824 2823 2821 2819 2817 2816 2814 2812 2811 2809 2807 2806 2804 2802 2800 2798 2796 2795 2793 2791 2790 2788 2787 2786 2785 2784 2783 2782 2781 2781 2780 2780 2779 2779 2779 2778 2778 2778 2778 2778 2778 2778 2778 2779 2779 2779 2780 2780 2781 2781
2889 2887 2885 2883 2881 2880 2878 2875 2872 2871 2869 2867 2865 2862 2860 2857 2855 2852 2851 2850 2850 2848 2846 2844 2842 2840 2838 2838 2836 2835 2832 2830 2829 2827 2825 2823 2821 2820 2818 2816 2815 2813 2811 2809 2808 2806 2805 2803 2801 2799 2797 2795 2793 2791 2790 2788 2786 2785 2783 2782 2781 2780 2779 2778 2777 2776 2776 2775 2775 2774 2774 2774 2774 2773 2773 2773 2773 2773 2773 2773 2773 2774 2774 2775 2776 2776
2886 2884 2882 2880 2877 2876 2874 2872 2870 2868 2866 2864 2862 2860 2859 2856 2853 2850 2847 2846 2846 2846 2844 2842 2840 2838 2835 2834 2833 2832 2830 2828 2826 2824 2822 2821 2819 2817 2815 2813 2811 2810 2808 2806 2805 2803 2802 2800 2798 2796 2794 2792 2790 2788 2786 2784 2783 2781 2780 2778 2777 2776 2775 2774 2773 2772 2772 2771 2771 2770 2770 2769 2769 2769 2768 2768 2768 2768 2768 2768 2768 2768 2769 2769 2770 2771
2883 2881 2878 2876 2875 2873 2871 2869 2867 2866 2864 2862 2859 2857 2856 2854 2852 2849 2846 2844 2843 2842 2841 2840 2838 2836 2833 2831 2829 2828 2827 2825 2823 2821 2820 2818 2816 2814 2812 2811 2809 2807 2805 2803 2802 2800 2799 2796 2795 2792 2791 2788 2786 2785 2783 2781 2779 2777 2776 2775 2773 2772 2771 2770 2769 2768 2768 2767 2766 2766 2766 2765 2765 2764 2764 2764 2763 2763 2763 2763 2763 2763 2763 2764 2764 2765
2880 2878 2876 2874 2872 2871 2869 2867 2865 2863 2861 2860 2857 2854 2852 2851 2849 2847 2844 2842 2841 2840 2838 2836 2835 2834 2832 2829 2827 2825 2824 2822 2820 2819 2817 2815 2813 2811 2809 2807 2805 2803 2801 2800 2798 2797 2795 2793 2791 2789 2787 2785 2783 2781 2779 2777 2776 2774 2772 2771 2770 2769 2767 2766 2766 2765 2764 2763 2763 2762 2761 2761 2761 2760 2759 2759 2759 2758 2758 2758 2758 2758 2758 2759 2759 2760
2878 2876 2874 2872 2870 2869 2867 2865 2863 2861 2859 2857 2855 2852 2850 2848 2846 2845 2842 2841 2839 2838 2836 2834 2832 2831 2829 2827 2825 2823 2821 2819 2817 2815 2814 2812 2810 2808 2806 2804 2802 2800 2798 2796 2795 2793 2792 2790 2788 2786 2784 2782 2781 2778 2776 2775 2773 2771 2770 2768 2766 2765 2764 2763 2762 2761 2760 2760 2759 2758 2758 2757 2756 2756 2756 2755 2755 2754 2754 2754 2753 2753 2754 2754 2754 2755
2876 2874 2871 2870 2868 2866 2865 2863 2861 2858 2856 2855 2853 2851 2848 2846 2844 2842 2840 2838 2837 2835 2834 2831 2830 2828 2827 2826 2823 2821 2818 2816 2813 2811 2809 2808 2807 2806 2803 2800 2798 2796 2795 2793 2791 2790 2789 2787 2784 2782 2781 2779 2777 2776 2774 2771 2770 2768 2766 2765 2763 2762 2761 2759 2758 2757 2756 2756 2755 2755 2754 2753 2753 2752 2751 2751 2751 2750 2750 2750 2749 2749 2749 2749 2749 2750
2873 2871 2869 2867 2865 2864 2862 2861 2858 2856 2854 2852 2851 2848 2846 2844 2842 2841 2838 2836 2835 2833 2831 2829 2826 2825 2824 2824 2823 2820 2816 2813 2810 2808 2806 2804 2804 2803 2801 2798 2795 2793 2792 2791 2789 2787 2786 2784 2781 2780 2778 2776 2775 2773 2771 2769 2767 2765 2763 2762 2760 2759 2757 2756 2754 2753 2752 2752 2751 2751 2750 2749 2749 2748 2748 2747 2747 2746 2746 2746 2745 2745 2745 2745 2745 2745
2871 2869 2867 2865 2863 2861 2860 2858 2856 2854 2852 2850 2848 2846 2844 2842 2840 2838 2836 2834 2832 2831 2829 2826 2824 2822 2820 2820 2821 2819 2816 2811 2808 2805 2802 2801 2801 2800 2799 2796 2792 2790 2789 2788 2786 2784 2782 2781 2779 2777 2775 2773 2772 2770 2768 2766 2764 2762 2760 2758 2757 2755 2753 2752 2751 2749 2748 2747 2747 2746 2746 2745 2745 2744 2744 2743 2743 2742 2742 2741 2741 2741 2741 2741 2741 2741
2868 2867 2865 2862 2861 2859 2857 2856 2854 2852 2850 2848 2846 2844 2842 2841 2839 2837 2835 2833 2831 2828 2826 2825 2822 2820 2818 2816 2816 2816 2814 2810 2806 2802 2800 2798 2798 2798 2796 2794 2791 2788 2786 2785 2784 2782 2780 2778 2776 2774 2772 2771 2769 2767 2765 2763 2761 2759 2757 2755 2753 2751 2750 2748 2747 2746 2745 2744 2743 2742 2742 2741 2741 2741 2740 2740 2739 2739 2739 2738 2738 2738 2738 2737 2737 2737
2865 2864 2863 2861 2858 2856 2855 2854 2852 2850 2848 2846 2844 2842 2840 2839 2837 2835 2833 2831 2829 2827 2825 2822 2820 2818 2816 2814 2813 2813 2812 2808 2804 2801 2798 2796 2795 2795 2794 2791 2788 2786 2784 2782 2781 2779 2777 2775 2773 2771 2770 2767 2766 2763 2761 2759 2757 2755 2753 2751 2750 2748 2746 2745 2743 2742 2741 2740 2739 2738 2738 2738 2737 2737 2737 2736 2736 2736 2736 2736 2735 2735 2735 2735 2735 2734
2863 2862 2861 2859 2856 2854 2853 2852 2851 2849 2846 2844 2842 2840 2838 2836 2835 2833 2832 2830 2827 2825 2823 2821 2818 2816 2814 2812 2811 2811 2809 2806 2803 2799 2796 2793 2792 2792 2791 2788 2785 2783 2781 2780 2778 2776 2774 2771 2770 2768 2766 2764 2762 2760 2757 2755 2752 2751 2749 2747 2746 2744 2743 2741 2740 2739 2738 2737 2736 2736 2735 2735 2734 2734 2734 2734 2733 2733 2733 2733 2732 2732 2732 2732 2732 2732
2861 2860 2859 2857 2855 2852 2851 2850 2848 2847 2845 2842 2840 2838 2836 2835 2833 2831 2830 2828 2826 2823 2821 2818 2816 2814 2812 2811 2809 2808 2807 2805 2801 2797 2793 2791 2789 2789 2788 2785 2782 2780 2778 2777 2775 2773 2771 2768 2766 2764 2762 2760 2757 2755 2753 2750 2748 2746 2745 2743 2742 2741 2740 2738 2737 2736 2735 2734 2734 2733 2732 2732 2731 2731 2731 2731 2730 2730 2730 2730 2730 2729 2729 2729 2730 2730
2859 2858 2857 2856 2854 2851 2849 2847 2846 2845 2843 2841 2839 2837 2835 2833 2831 2829 2828 2826 2824 2821 2819 2816 2814 2812 2811 2809 2808 2806 2806 2803 2799 2795 2791 2787 2786 2786 2786 2783 2780 2777 2776 2774 2772 2770 2767 2765 2763 2761 2758 2756 2754 2751 2749 2746 2744 2743 2741 2740 2739 2738 2737 2736 2735 2734 2733 2732 2731 2731 2730 2730 2729 2728 2728 2728 2727 2727 2726 2726 2726 2726 2726 2726 2726 2727
2858 2856 2855 2853 2852 2850 2847 2846 2844 2843 2841 2840 2838 2836 2833 2831 2829 2827 2825 2824 2821 2819 2816 2814 2812 2811 2809 2808 2806 2805 2804 2801 2798 2793 2789 2785 2783 2782 2783 2781 2778 2775 2773 2771 2769 2766 2764 2762 2760 2757 2755 2752 2750 2748 2746 2743 2741 2740 2739 2738 2737 2736 2735 2734 2732 2731 2730 2730 2729 2728 2727 2726 2726 2726 2725 2725 2724 2724 2724 2724 2724 2724 2724 2724 2724 2724
2856 2854 2853 2851 2850 2848 2846 2844 2843 2841 2840 2838 2836 2834 2832 2830 2828 2826 2824 2821 2819 2817 2814 2812 2810 2808 2807 2806 2805 2803 2802 2800 2796 2792 2788 2784 2781 2781 2780 2778 2775 2772 2770 2768 2766 2763 2760 2758 2756 2754 2751 2749 2747 2745 2743 2741 2739 2738 2737 2736 2734 2733 2732 2731 2730 2728 2727 2726 2726 2725 2724 2724 2723 2722 2722 2722 2721 2721 2721 2721 2721 2721 2721 2721 2721 2721
2855 2853 2851 2850 2848 2846 2845 2843 2841 2840 2838 2836 2834 2832 2831 2829 2826 2824 2822 2820 2818 2815 2812 2810 2808 2806 2805 2804 2803 2802 2801 2799 2795 2791 2787 2783 2780 2779 2778 2776 2773 2770 2767 2765 2763 2760 2757 2755 2753 2751 2749 2747 2745 2743 2741 2740 2738 2736 2735 2733 2732 2731 2729 2728 2727 2726 2725 2724 2723 2723 2722 2721 2721 2720 2719 2719 2719 2718 2718 2718 2718 2718 2718 2718 2717 2717
2853 2851 2850 2848 2847 2845 2844 2842 2840 2838 2836 2835 2833 2831 2829 2827 2825 2823 2821 2819 2816 2814 2811 2809 2806 2805 2804 2802 2801 2800 2798 2797 2794 2790 2786 2782 2778 2776 2776 2774 2771 2767 2764 2762 2760 2757 2755 2753 2752 2750 2748 2746 2744 2742 2740 2738 2736 2735 2733 2732 2730 2729 2728 2726 2726 2725 2724 2723 2722 2721 2720 2720 2719 2718 2717 2716 2716 2716 2715 2715 2714 2714 2714 2713 2713 2713
2852 2851 2849 2847 2846 2844 2842 2841 2839 2837 2836 2834 2832 2830 2827 2825 2823 2821 2820 2818 2815 2813 2810 2807 2805 2803 2802 2800 2799 2797 2796 2795 2792 2788 2784 2781 2777 2775 2774 2772 2769 2765 2762 2759 2757 2756 2754 2752 2751 2749 2747 2745 2743 2741 2739 2737 2736 2734 2732 2731 2729 2728 2726 2725 2724 2723 2722 2721 2720 2719 2719 2718 2717 2716 2715 2714 2714 2713 2712 2711 2711 2710 2710 2709 2708 2708
2851 2849 2847 2846 2844 2842 2841 2839 2838 2836 2835 2833 2831 2829 2827 2824 2822 2820 2818 2816 2814 2811 2809 2807 2804 2802 2800 2798 2797 2796 2795 2793 2790 2786 2782 2779 2776 2773 2772 2770 2767 2764 2761 2758 2756 2755 2754 2752 2750 2748 2746 2745 2743 2741 2739 2737 2736 2734 2733 2731 2730 2728 2726 2725 2723 2722 2721 2720 2719 2717 2716 2716 2715 2714 2713 2712 2711 2710 2709 2709 2708 2707 2706 2705 2704 2703
2849 2848 2846 2844 2843 2841 2839 2838 2836 2835 2834 2832 2830 2828 2826 2823 2821 2819 2816 2814 2812 2810 2808 2806 2803 2801 2798 2796 2794 2794 2793 2791 2788 2784 2781 2777 2775 2772 2771 2768 2766 2763 2760 2757 2755 2754 2753 2751 2749 2747 2746 2744 2742 2741 2739 2738 2736 2735 2733 2732 2730 2729 2727 2725 2724 2722 2721 2720 2718 2717 2716 2714 2713 2712 2711 2710 2709 2708 2707 2706 2706 2704 2703 2702 2701 2700
2848 2846 2845 2843 2841 2840 2838 2837 2835 2834 2832 2831 2829 2826 2824 2821 2819 2817 2815 2813 2811 2809 2807 2805 2802 2800 2797 2794 2791 2790 2790 2790 2787 2783 2780 2776 2773 2771 2769 2767 2765 2762 2760 2757 2754 2752 2751 2751 2749 2747 2745 2744 2742 2740 2739 2737 2736 2734 2733 2731 2730 2728 2727 2725 2724 2722 2721 2720 2718 2716 2715 2713 2712 2711 2709 2708 2707 2706 2705 2704 2703 2702 2700 2699 2698 2697
2846 2845 2843 2841 2840 2838 2836 2835 2834 2832 2830 2829 2826 2824 2822 2820 2818 2816 2814 2812 2810 2808 2806 2803 2801 2799 2796 2793 2790 2788 2786 2786 2785 2782 2778 2775 2772 2769 2768 2766 2763 2761 2760 2758 2755 2752 2750 2749 2748 2747 2745 2743 2741 2740 2738 2736 2735 2733 2731 2730 2729 2727 2726 2724 2723 2721 2720 2719 2717 2715 2714 2712 2710 2709 2707 2706 2705 2703 2702 2701 2701 2699 2697 2696 2695 2694
2845 2843 2841 2840 2838 2836 2835 2833 2831 2830 2828 2826 2824 2822 2820 2818 2816 2815 2813 2811 2809 2807 2805 2802 2800 2797 2795 2793 2790 2787 2785 2784 2782 2780 2777 2774 2771 2768 2767 2765 2762 2761 2759 2758 2756 2753 2750 2748 2747 2746 2745 2743 2741 2739 2737 2736 2734 2732 2731 2729 2728 2726 2725 2723 2722 2721 2719 2717 2716 2714 2712 2710 2708 2707 2705 2704 2702 2701 2700 2699 2698 2696 2695 2693 2691 2690
2843 2841 2839 2838 2836 2835 2833 2831 2829 2828 2826 2824 2822 2820 2818 2817 2815 2814 2812 2810 2808 2806 2803 2801 2798 2796 2793 2791 2789 2787 2785 2783 2781 2778 2776 2772 2770 2767 2765 2764 2762 2760 2758 2757 2756 2753 2751 2748 2746 2745 2744 2742 2740 2738 2736 2735 2733 2731 2730 2728 2727 2726 2724 2722 2721 2719 2717 2716 2714 2712 2711 2709 2707 2705 2703 2702 2700 2699 2697 2696 2695 2694 2692 2690 2688 2687
2841 2839 2838 2836 2834 2833 2831 2829 2827 2826 2824 2822 2820 2819 2817 2816 2814 2813 2811 2809 2807 2805 2803 2800 2797 2795 2792 2789 2787 2786 2784 2782 2780 2778 2775 2772 2769 2766 2764 2763 2761 2759 2757 2756 2754 2752 2751 2748 2746 2744 2742 2741 2740 2738 2736 2734 2732 2731 2729 2727 2726 2724 2723 2721 2719 2717 2716 2714 2712 2710 2708 2706 2705 2703 2701 2699 2698 2696 2695 2693 2692 2691 2689 2687 2685 2683
2839 2838 2836 2834 2832 2831 2829 2827 2825 2823 2822 2820 2818 2817 2816 2814 2813 2812 2810 2808 2806 2804 2802 2800 2797 2794 2791 2788 2786 2784 2782 2781 2779 2777 2774 2771 2768 2766 2764 2762 2761 2759 2757 2755 2753 2751 2750 2748 2746 2744 2741 2740 2739 2737 2736 2733 2731 2730 2729 2727 2725 2723 2721 2719 2717 2715 2713 2711 2710 2708 2706 2704 2702 2700 2698 2696 2695 2693 2691 2690 2689 2687 2686 2684 2682 2680
2837 2836 2834 2832 2831 2829 2827 2825 2823 2821 2820 2819 2817 2816 2815 2813 2812 2811 2809 2807 2805 2803 2801 2799 2796 2794 2792 2789 2786 2783 2780 2779 2777 2776 2774 2771 2768 2765 2763 2761 2760 2758 2756 2754 2752 2751 2749 2747 2745 2744 2741 2739 2738 2736 2735 2733 2731 2730 2728 2726 2725 2723 2721 2718 2716 2714 2711 2709 2707 2705 2703 2701 2698 2696 2695 2693 2691 2689 2688 2686 2685 2683 2682 2681 2679 2677
2836 2834 2832 2831 2828 2826 2825 2823 2821 2820 2818 2817 2816 2815 2814 2812 2811 2810 2808 2806 2804 2801 2800 2797 2796 2794 2791 2789 2786 2783 2780 2778 2776 2774 2772 2770 2768 2765 2762 2761 2759 2758 2756 2754 2752 2750 2748 2746 2744 2743 2741 2739 2737 2735 2733 2732 2730 2729 2727 2725 2723 2721 2719 2717 2715 2712 2709 2707 2705 2702 2700 2697 2695 2693 2691 2689 2687 2686 2684 2682 2681 2679 2678 2676 2675 2673
2834 2832 2831 2829 2826 2825 2823 2821 2820 2818 2817 2816 2815 2814 2813 2811 2810 2808 2806 2804 2802 2800 2798 2796 2794 2792 2790 2788 2786 2783 2780 2777 2775 2773 2771 2769 2767 2765 2762 2760 2758 2757 2756 2754 2752 2750 2748 2746 2743 2741 2740 2739 2737 2735 2733 2731 2729 2727 2726 2724 2722 2721 2718 2716 2713 2711 2708 2705 2702 2700 2697 2695 2692 2690 2687 2685 2683 2681 2680 2678 2676 2675 2673 2671 2670 2669
2833 2831 2829 2827 2825 2823 2821 2820 2818 2817 2816 2815 2814 2813 2811 2810 2808 2807 2805 2803 2801 2798 2796 2794 2792 2791 2789 2787 2785 2782 2780 2777 2775 2772 2770 2768 2766 2764 2761 2760 2758 2756 2755 2753 2751 2750 2748 2745 2743 2741 2739 2737 2736 2734 2732 2730 2728 2726 2724 2722 2721 2719 2717 2714 2711 2709 2706 2703 2700 2697 2695 2692 2689 2686 2684 2682 2680 2678 2676 2674 2672 2671 2669 2667 2665 2664
2831 2829 2827 2826 2823 2821 2820 2819 2817 2816 2815 2814 2813 2811 2810 2809 2807 2805 2803 2801 2799 2797 2795 2792 2791 2789 2787 2786 2783 2781 2779 2776 2774 2771 2769 2767 2765 2763 2761 2759 2757 2755 2754 2752 2751 2750 2747 2745 2743 2741 2739 2736 2734 2732 2731 2729 2727 2725 2722 2720 2718 2716 2715 2713 2710 2707 2704 2701 2698 2695 2692 2689 2686 2684 2681 2679 2677 2675 2672 2670 2668 2666 2665 2663 2661 2659
2829 2828 2826 2824 2822 2821 2819 2818 2817 2816 2814 2813 2812 2810 2809 2807 2805 2803 2802 2800 2798 2795 2793 2791 2789 2788 2786 2785 2783 2780 2777 2775 2772 2770 2768 2766 2764 2762 2760 2758 2756 2755 2753 2752 2751 2749 2747 2745 2743 2741 2738 2736 2734 2732 2730 2729 2727 2724 2722 2719 2716 2714 2713 2711 2708 2705 2702 2699 2696 2693 2689 2686 2684 2681 2679 2676 2674 2672 2669 2667 2665 2662 2661 2659 2657 2655
2828 2826 2825 2823 2821 2820 2819 2817 2816 2815 2814 2812 2811 2809 2807 2805 2803 2801 2799 2797 2795 2793 2791 2789 2787 2786 2785 2783 2781 2779 2776 2774 2771 2769 2767 2765 2763 2761 2759 2758 2756 2754 2752 2751 2750 2748 2747 2745 2742 2740 2738 2736 2734 2731 2730 2728 2726 2724 2721 2718 2715 2712 2710 2708 2706 2703 2700 2697 2694 2691 2687 2684 2681 2678 2676 2673 2671 2669 2666 2664 2662 2660 2657 2655 2653 2651
2827 2825 2823 2822 2820 2819 2818 2816 2816 2814 2813 2811 2809 2808 2806 2804 2802 2800 2797 2795 2793 2791 2790 2788 2786 2784 2782 2781 2780 2778 2776 2773 2771 2768 2766 2764 2762 2760 2758 2757 2755 2754 2752 2751 2749 2748 2746 2745 2742 2740 2738 2736 2733 2731 2729 2727 2725 2723 2721 2718 2715 2711 2707 2705 2703 2701 2699 2696 2692 2689 2685 2682 2678 2676 2673 2670 2668 2665 2663 2661 2659 2657 2655 2653 2651 2649
2825 2824 2822 2821 2820 2818 2817 2816 2814 2813 2811 2810 2808 2806 2805 2803 2801 2798 2796 2794 2792 2790 2788 2786 2784 2782 2781 2779 2777 2776 2774 2772 2770 2768 2766 2763 2761 2759 2758 2756 2755 2754 2752 2751 2749 2747 2745 2744 2742 2740 2738 2736 2733 2731 2728 2726 2724 2722 2720 2717 2715 2711 2708 2705 2702 2699 2696 2693 2690 2686 2683 2680 2676 2673 2670 2667 2665 2662 2660 2658 2656 2655 2653 2651 2650 2648
2824 2823 2821 2820 2819 2817 2816 2815 2814 2812 2811 2809 2807 2806 2804 2802 2800 2798 2795 2793 2791 2789 2787 2785 2783 2781 2779 2777 2776 2774 2772 2771 2769 2767 2765 2763 2761 2759 2758 2756 2755 2753 2752 2751 2749 2747 2745 2743 2741 2739 2737 2736 2734 2731 2728 2726 2723 2721 2718 2716 2714 2711 2708 2705 2701 2698 2694 2691 2687 2684 2681 2678 2674 2671 2667 2665 2662 2661 2659 2657 2655 2654 2652 2650 2648 2646
2823 2822 2821 2820 2818 2817 2816 2814 2813 2811 2810 2808 2806 2805 2803 2801 2799 2797 2795 2792 2790 2788 2786 2784 2782 2780 2778 2776 2774 2772 2771 2769 2767 2766 2764 2762 2761 2759 2757 2756 2754 2753 2751 2750 2748 2747 2745 2742 2740 2738 2736 2735 2733 2731 2728 2726 2722 2720 2717 2714 2712 2709 2706 2704 2701 2697 2694 2690 2686 2683 2679 2676 2673 2669 2666 2663 2661 2660 2658 2656 2655 2653 2651 2649 2647 2646
2822 2821 2820 2819 2817 2816 2815 2813 2812 2810 2809 2807 2806 2804 2802 2800 2798 2796 2794 2792 2790 2788 2786 2784 2782 2780 2777 2775 2773 2771 2769 2767 2766 2764 2763 2761 2760 2758 2757 2756 2754 2753 2751 2750 2748 2746 2745 2742 2740 2737 2736 2734 2732 2730 2728 2725 2722 2719 2716 2713 2710 2707 2705 2702 2699 2696 2693 2689 2686 2682 2678 2674 2671 2668 2665 2663 2661 2659 2657 2656 2654 2652 2650 2648 2646 2644
2821 2820 2819 2818 2816 2815 2814 2812 2811 2809 2808 2806 2805 2803 2801 2800 2797 2795 2793 2791 2789 2787 2785 2783 2781 2779 2777 2775 2773 2770 2768 2766 2764 2763 2761 2760 2758 2757 2756 2755 2754 2752 2751 2750 2748 2746 2745 2742 2740 2737 2734 2732 2730 2728 2726 2724 2721 2718 2715 2712 2709 2706 2703 2701 2698 2695 2692 2689 2685 2681 2678 2674 2671 2667 2664 2662 2660 2658 2657 2656 2654 2651 2649 2647 2645 2644
2820 2819 2818 2817 2816 2814 2813 2811 2810 2808 2807 2806 2804 2802 2801 2799 2797 2795 2792 2790 2788 2786 2784 2782 2780 2778 2776 2774 2772 2770 2768 2766 2764 2762 2760 2759 2757 2756 2755 2754 2752 2751 2750 2749 2748 2746 2745 2743 2740 2737 2734 2731 2729 2726 2724 2722 2720 2717 2714 2711 2708 2705 2702 2700 2697 2694 2691 2687 2684 2681 2678 2675 2671 2668 2665 2662 2660 2658 2657 2656 2653 2651 2649 2647 2645 2644
2819 2818 2817 2816 2815 2813 2812 2811 2809 2807 2806 2805 2803 2801 2800 2798 2796 2794 2792 2790 2788 2786 2784 2782 2779 2777 2775 2773 2771 2769 2767 2765 2763 2761 2759 2758 2756 2755 2753 2752 2751 2750 2749 2748 2747 2746 2744 2743 2741 2738 2735 2731 2728 2725 2722 2720 2717 2715 2713 2711 2708 2705 2702 2699 2696 2694 2690 2687 2683 2680 2676 2674 2671 2668 2666 2663 2661 2659 2658 2656 2654 2651 2650 2648 2646 2645
2819 2817 2816 2815 2814 2812 2811 2810 2808 2806 2805 2803 2802 2800 2799 2797 2795 2793 2791 2789 2787 2785 2783 2781 2779 2777 2775 2772 2771 2769 2767 2765 2762 2760 2758 2757 2755 2754 2752 2751 2749 2748 2747 2746 2744 2743 2742 2741 2740 2739 2736 2732 2728 2725 2722 2719 2716 2714 2711 2709 2707 2705 2702 2699 2696 2693 2690 2686 2683 2679 2676 2673 2671 2668 2666 2664 2662 2660 2659 2657 2655 2653 2651 2649 2647 2645